Regional Weather Roundup
Issued by NWS Cleveland, OH

Home | Current Version | Previous Version | Graphics & Text | Print | Product List | Glossary On
Versions: 1 2 3 4 5 6 7 8 9 10 11 12 13 14 15 16 17 18 19 20 21 22 23 24 25 26 27 28 29 30 31 32 33 34 35 36 37 38 39 40 41 42 43 44 45 46 47 48 49 50
000
ASUS41 KCLE 010100
RWRCLE
OHIO REGIONAL WEATHER ROUNDUP
NATIONAL WEATHER SERVICE WILMINGTON, OH
900 PM EDT MON AUG 31 2015

NOTE: "FAIR" INDICATES FEW OR NO CLOUDS BELOW 12,000 FEET WITH NO
SIGNIFICANT WEATHER AND/OR OBSTRUCTIONS TO VISIBILITY.

OHZ001>008-015>018-024>027-034-035-043-044-010200-
   NORTHWEST OHIO

CITY           SKY/WX    TMP DP  RH WIND       PRES   REMARKS
DEFIANCE       FAIR      77  70  79 CALM      30.05R
FINDLAY        FAIR      75  70  84 CALM      30.05S
TOLEDO EXPRESS FAIR      74  71  91 CALM      30.05R
TOLEDO EXEC    FAIR      78  67  68 CALM      30.05R
LIMA           FAIR      77  69  76 S5        30.07R
$$

OHZ009>014-019>023-028>033-038-089-010200-
   NORTHEAST OHIO

CITY           SKY/WX    TMP DP  RH WIND       PRES   REMARKS
CLE-HOPKINS    FAIR      78  66  66 E3        30.08S
CLE-LAKEFRONT  FAIR      77  67  71 CALM      30.05R
CUY CO. ARPT   PTCLDY    73  68  83 CALM      30.07S
LORAIN-ELYRIA  FAIR      73  69  87 CALM      30.07R
ASHTABULA      FAIR      69  66  90 CALM      30.08R
AKRON-CANTON   FAIR      77  66  68 NE6       30.08R
WOOSTER        NOT AVBL
MANSFIELD      FAIR      72  67  84 CALM      30.09R
YOUNGSTOWN     FAIR      76  64  66 VRB5      30.08S
$$

OHZ042-051>053-060>062-070>072-077>081-010200-
  SOUTHWEST OHIO

CITY           SKY/WX    TMP DP  RH WIND       PRES   REMARKS
CINC-COVINGTON PTCLDY    77  67  71 CALM      30.09R
CINC-LUNKEN    MOCLDY    76  68  76 NE5       30.08R
HAMILTON       CLOUDY    75  70  84 CALM      30.09R
DAYTON         NOT AVBL
WRIGHT-PAT AFB NOT AVBL
DAYTON GENERAL LGT RAIN  73  68  84 S6        30.09R
WILMINGTON     FAIR      72  67  84 W3        30.10R
$$

OHZ036-037-039>041-045>050-054>059-063>069-073>076-082>088-010200-
  CENTRAL AND SOUTHEAST OHIO

CITY           SKY/WX    TMP DP  RH WIND       PRES   REMARKS
COLUMBUS       MOCLDY    76  67  73 CALM      30.07R
OSU AIRPORT    CLOUDY    75  69  81 CALM      30.08R
BOLTON FIELD   NOT AVBL
RICKENBACK AFB NOT AVBL
NEWARK         FAIR      73  69  87 CALM      30.08R
MARION         FAIR      74  66  76 CALM      30.08R
LANCASTER      FAIR      69  66  90 CALM      30.09R
ZANESVILLE     NOT AVBL
NEW PHILLY     FAIR      73  70  90 CALM      30.08R
$$



USA.gov is the U.S. government's official web portal to all federal, state and local government web resources and services.